This demonstration page uses our WeatherBlox Daily Observations layout. Learn more.

Left ArrowRight Arrow

Hourly Observations for November 19, 2020

Temp ( °F °C ) Dew Point ( °F °C ) Humidity (%) Winds ( mph kmh ) Pressure ( in mb ) Visibility ( mi km ) Precip ( " mm )
12:52 am 00:52 Mostly Cloudy 55 12.8 39 3.9 55 55 SSE 12 19 29.80 1009 10 16 0.00 0.00
1:52 am 01:52 Mostly Cloudy 52 11.1 38 3.3 59 59 SSE 10 17 29.78 1008 10 16 0.00 0.00
2:52 am 02:52 Mostly Cloudy 51 10.6 37 2.8 59 59 SSE 13 20 29.76 1008 10 16 0.00 0.00
3:52 am 03:52 Mostly Cloudy 51 10.6 36 2.2 56 56 SSE 13 20 29.76 1008 10 16 0.00 0.00
4:52 am 04:52 Mostly Cloudy 51 10.6 35 1.7 54 54 S 10 17 29.76 1008 10 16 0.00 0.00
5:52 am 05:52 Partly Cloudy 50 10 36 2.2 59 59 S 13 20 29.76 1008 10 16 0.00 0.00
6:52 am 06:52 Partly Cloudy 47 8.3 36 2.2 66 66 SE 13 20 29.78 1008 10 16 0.00 0.00
7:52 am 07:52 Mostly Cloudy 47 8.3 37 2.8 69 69 SSE 12 19 29.79 1009 10 16 0.00 0.00
8:52 am 08:52 Mostly Cloudy 53 11.7 39 3.9 59 59 SSE 8 13 29.80 1009 10 16 0.00 0.00
9:52 am 09:52 Mostly Cloudy 59 15 39 3.9 48 48 SSW 12 19 29.80 1009 10 16 0.00 0.00
10:52 am 10:52 Mostly Cloudy 62 16.7 40 4.4 44 44 SSW 8 13 29.81 1009 10 16 0.00 0.00
11:52 am 11:52 Mostly Cloudy 66 18.9 40 4.4 39 39 SSW 9 15 29.80 1009 10 16 0.00 0.00
12:52 pm 12:52 Mostly Cloudy 69 20.6 40 4.4 35 35 SW 10 17 29.79 1009 10 16 0.00 0.00
1:52 pm 13:52 Mostly Sunny 72 22.2 40 4.4 31 31 W 7 11 29.80 1009 10 16 0.00 0.00
2:52 pm 14:52 Mostly Sunny 72 22.2 40 4.4 31 31 SW 8 13 29.81 1010 10 16 0.00 0.00
3:52 pm 15:52 Mostly Sunny 72 22.2 40 4.4 31 31 WSW 6 9 29.84 1011 10 16 0.00 0.00
4:52 pm 16:52 Mostly Sunny 69 20.6 40 4.4 35 35 WSW 6 9 29.87 1012 10 16 0.00 0.00
5:52 pm 17:52 Mostly Clear 60 15.6 40 4.4 47 47 Calm 29.90 1013 10 16 0.00 0.00
6:52 pm 18:52 Clear 55 12.8 41 5 59 59 N 8 13 29.94 1014 10 16 0.00 0.00
7:52 pm 19:52 Clear 50 10 39 3.9 66 66 N 7 11 29.97 1015 10 16 0.00 0.00
8:52 pm 20:52 Clear 46 7.8 38 3.3 73 73 N 8 13 30.00 1016 10 16 0.00 0.00
9:52 pm 21:52 Clear 43 6.1 36 2.2 76 76 N 7 11 30.03 1017 10 16 0.00 0.00
10:52 pm 22:52 Clear 44 6.7 38 3.3 79 79 N 9 15 30.07 1018 10 16 0.00 0.00
11:52 pm 23:52 Clear 41 5 36 2.2 82 82 NNW 6 9 30.10 1019 10 16 0.00 0.00

Powered by AerisWeather